This is the latest recevied weather packets stored in our database for station/object N9DRW. If no packets are shown the sender has not sent any weather packets the latest 10 day(s).
| Time | Temp. | Humidity | Pressure | Rain* | Wind** | Luminosity | Snow |
|---|---|---|---|---|---|---|---|
| 1778106726 | 9.44° C | 43% | 0 hPa | 0 mm | - | - | - |
| 1778106126 | 10° C | 41% | 0 hPa | 0 mm | - | - | - |
| 1778105525 | 9.44° C | 43% | 0 hPa | 0 mm | - | - | - |
| 1778104926 | 9.44° C | 45% | 0 hPa | 0 mm | - | - | - |
| 1778104326 | 9.44° C | 46% | 0 hPa | 0 mm | - | - | - |
| 1778103725 | 9.44° C | 43% | 0 hPa | 0 mm | - | - | - |
| 1778103126 | 10° C | 43% | 0 hPa | 0 mm | - | - | - |
| 1778102526 | 10.56° C | 42% | 0 hPa | 0 mm | - | - | - |
| 1778101926 | 10° C | 43% | 0 hPa | 0 mm | - | - | - |
| 1778101326 | 9.44° C | 44% | 0 hPa | 0 mm | - | - | - |
| 1778100725 | 9.44° C | 44% | 0 hPa | 0 mm | - | - | - |
| 1778100126 | 9.44° C | 44% | 0 hPa | 0 mm | - | - | - |
| 1778099525 | 10° C | 43% | 0 hPa | 0 mm | - | - | - |
| 1778098926 | 10.56° C | 42% | 0 hPa | 0 mm | - | - | - |
| 1778098326 | 10.56° C | 42% | 0 hPa | 0 mm | - | - | - |
| 1778097726 | 10.56° C | 40% | 0 hPa | 0 mm | - | - | - |
| 1778097126 | 11.11° C | 41% | 0 hPa | 0 mm | - | - | - |
| 1778096526 | 10.56° C | 42% | 0 hPa | 0 mm | - | - | - |
| 1778095925 | 11.11° C | 43% | 0 hPa | 0 mm | - | - | - |
| 1778095326 | 11.11° C | 40% | 0 hPa | 0 mm | - | - | - |
| 1778094726 | 11.11° C | 39% | 0 hPa | 0 mm | - | - | - |
| 1778094126 | 10.56° C | 41% | 0 hPa | 0 mm | - | - | - |
| 1778093526 | 11.11° C | 38% | 0 hPa | 0 mm | - | - | - |
| 1778092926 | 12.22° C | 40% | 0 hPa | 0 mm | - | - | - |
| 1778092325 | 11.11° C | 42% | 0 hPa | 0 mm | - | - | - |
* Rain latest hour (hover to see other rain measurements)
** Current wind speed in m/s (hover to see current wind gust speed)